Location: Street
(51.1247°N, 2.7429°W)
Time: 06:02:46
(UTC+00:00)

SR - Pass Details

Date: 04 December 2020
Orbit: 575 x 880 km, 66.7° (Epoch: 25 January)

Event Time Altitude Azimuth Distance (km) Brightness Sun altitude
Rises 22:16:11 0° 314° (NW) 3,048 - -54.7°
Reaches altitude 10° 22:19:26 10° 338° (NNW) 2,198 - -55.1°
Maximum altitude 22:22:22 15° 13° (NNE) 1,918 - -55.4°
Drops below altitude 10° 22:25:25 10° 49° (NE) 2,317 - -55.7°
Sets 22:28:59 0° 72° (ENE) 3,311 - -56.1°
